Blackpool, United Kingdom

12:46 PM GMT on November 18, 2017 (GMT +0000)
Blackpool

Weather History for EGNH - August, 2013

Change the Weather History Date:

Saturday, August 10, 2013

  Actual Average Record
Temperature  
Mean Temperature 62 °F -  
Max Temperature 65 °F 63 °F 84 °F (1997)
Min Temperature 58 °F 54 °F 46 °F (2017)
Degree Days  
Heating Degree Days 4    
Growing Degree Days 12 (Base 50)    
Moisture  
Dew Point 51 °F    
Average Humidity 65    
Maximum Humidity 82    
Minimum Humidity 47    
Precipitation  
Precipitation 0.00 in - - ()
Sea Level Pressure  
Sea Level Pressure 30.13 in    
Wind  
Wind Speed 11 mph ()    
Max Wind Speed 17 mph    
Max Gust Speed -    
Visibility 6.2 miles    
Events      
Averages and records for this station are not official NWS values.
T = Trace of Precipitation, MM = Missing Value Source: Averaged Metar Reports

Daily Weather History Graph

Daily Weather History Graph

Search for Another Location

Airport or City:

Trip Planner

Search our weather history database for the weather conditions in past years. The results will help you decide how hot, cold, wet, or windy it might be!

Date:

Astronomy

Aug. 10, 2013 Rise Set
Actual Time 5:42 AM BST 8:51 PM BST
Civil Twilight 5:00 AM BST 9:32 PM BST
Nautical Twilight 4:05 AM BST 10:27 PM BST
Astronomical Twilight 2:48 AM BST 11:42 PM BST
Moon 9:56 AM BST (8/10) 9:39 PM BST (8/10)
Length of Visible Light 16h 32m
Length of Day
15h 09m
Waxing Crescent, 12% of the Moon is Illuminated
Aug 10
Waxing Crescent
Aug 14
First Quarter
Aug 21
Full
Aug 28
Last Quarter
Sep 5
New

Hourly Weather History & Observations

Time (BST) Temp. Dew Point Humidity Pressure Visibility Wind Dir Wind Speed Gust Speed Precip Events Conditions
12:50 AM 60 °F 51 °F 65%  in - NW 10.4 mph - -  
3:50 AM 59 °F 50 °F 65%  in - NW 9.2 mph - -  
6:20 AM 59.0 °F 50.0 °F 72% 30.15 in 6.2 mi WNW 10.4 mph - N/A   Scattered Clouds
6:50 AM 59 °F 50 °F 65%  in - WNW 11.5 mph - -  
6:50 AM 59.0 °F 50.0 °F 72% 30.15 in 6.2 mi West 11.5 mph - N/A   Scattered Clouds
7:20 AM 60.8 °F 50.0 °F 68% 30.15 in 6.2 mi WNW 8.1 mph - N/A   Scattered Clouds
7:50 AM 60.8 °F 50.0 °F 68% 30.15 in 6.2 mi WNW 8.1 mph - N/A   Scattered Clouds
8:20 AM 60.8 °F 48.2 °F 63% 30.15 in 6.2 mi WNW 11.5 mph - N/A   Scattered Clouds
8:50 AM 60.8 °F 44.6 °F 55% 30.15 in 6.2 mi WNW 10.4 mph - N/A   Scattered Clouds
9:20 AM 60.8 °F 46.4 °F 59% 30.15 in 6.2 mi West 11.5 mph - N/A   Scattered Clouds
9:50 AM 61 °F 47 °F 50%  in - West 11.5 mph - -  
9:50 AM 60.8 °F 48.2 °F 63% 30.18 in 6.2 mi West 10.4 mph - N/A   Scattered Clouds
10:20 AM 62.6 °F 50.0 °F 63% 30.18 in 6.2 mi West 11.5 mph - N/A   Scattered Clouds
10:50 AM 62.6 °F 50.0 °F 63% 30.18 in 6.2 mi West 10.4 mph - N/A   Scattered Clouds
11:50 AM 62.6 °F 48.2 °F 59% 30.18 in 6.2 mi West 11.5 mph - N/A   Partly Cloudy
12:20 PM 62.6 °F 50.0 °F 63% 30.15 in 6.2 mi WSW 10.4 mph - N/A   Partly Cloudy
12:50 PM 64 °F 49 °F 47%  in - WSW 13.8 mph - -  
12:50 PM 64.4 °F 51.8 °F 64% 30.18 in 6.2 mi WSW 12.7 mph - N/A   Partly Cloudy
1:20 PM 64.4 °F 50.0 °F 59% 30.15 in 6.2 mi WSW 12.7 mph - N/A   Scattered Clouds
1:50 PM 64.4 °F 46.4 °F 52% 30.15 in 6.2 mi WSW 12.7 mph - N/A   Partly Cloudy
2:50 PM 64.4 °F 50.0 °F 59% 30.15 in 6.2 mi SW 12.7 mph - N/A   Partly Cloudy
3:20 PM 66.2 °F 48.2 °F 52% 30.15 in 6.2 mi SW 11.5 mph - N/A   Partly Cloudy
3:50 PM 65 °F 51 °F 49%  in - WSW 15.0 mph - -  
3:50 PM 66.2 °F 51.8 °F 60% 30.15 in 6.2 mi SW 12.7 mph - N/A   Partly Cloudy
4:20 PM 66.2 °F 51.8 °F 60% 30.15 in 6.2 mi WSW 15.0 mph - N/A   Partly Cloudy
4:50 PM 64.4 °F 51.8 °F 64% 30.12 in 6.2 mi WSW 15.0 mph - N/A   Partly Cloudy
5:20 PM 64.4 °F 53.6 °F 68% 30.12 in 6.2 mi WSW 16.1 mph - N/A   Partly Cloudy
5:50 PM 64.4 °F 53.6 °F 68% 30.12 in 6.2 mi WSW 16.1 mph - N/A   Partly Cloudy
6:20 PM 64.4 °F 55.4 °F 73% 30.09 in 6.2 mi SW 16.1 mph - N/A   Partly Cloudy
6:50 PM 63 °F 54 °F 66%  in - WSW 17.3 mph - -  
6:50 PM 62.6 °F 53.6 °F 72% 30.09 in 6.2 mi SW 15.0 mph - N/A   Partly Cloudy
7:20 PM 64.4 °F 53.6 °F 68% 30.09 in 6.2 mi SW 15.0 mph - N/A   Partly Cloudy
7:50 PM 62.6 °F 53.6 °F 72% 30.09 in 6.2 mi SW 12.7 mph - N/A   Partly Cloudy
8:20 PM 62.6 °F 53.6 °F 72% 30.09 in 6.2 mi SW 12.7 mph - N/A   Partly Cloudy
8:50 PM 62.6 °F 53.6 °F 72% 30.06 in 6.2 mi SW 11.5 mph - N/A   Partly Cloudy
9:20 PM 62.6 °F 55.4 °F 77% 30.06 in 6.2 mi SW 9.2 mph - N/A   Partly Cloudy
9:50 PM 61 °F 55 °F 75%  in - SW 11.5 mph - -  
9:50 PM 62.6 °F 55.4 °F 77% 30.06 in 6.2 mi SW 9.2 mph - N/A   Partly Cloudy
10:20 PM 60.8 °F 55.4 °F 82% 30.06 in 6.2 mi SW 10.4 mph - N/A   Partly Cloudy
10:50 PM 60.8 °F 55.4 °F 82% 30.06 in 6.2 mi SW 9.2 mph - N/A   Partly Cloudy